Regional Weather Roundup
Issued by NWS Charleston, SC

Current Version | Previous Version | Graphics & Text | Print | Product List | Glossary On
Versions: 1 2 3 4 5 6 7 8 9 10 11 12 13 14 15 16 17 18 19 20 21 22 23 24 25 26 27 28 29 30 31 32 33 34 35 36 37 38 39 40 41 42 43 44 45 46 47 48 49 50
000
ASUS42 KCHS 221611
RWRCHS

REGIONAL WEATHER ROUNDUP
NATIONAL WEATHER SERVICE CHARLESTON SC
1100 AM EST WED FEB 22 2017

NOTE: "FAIR" INDICATES FEW OR NO CLOUDS BELOW 12,000 FEET WITH NO
SIGNIFICANT WEATHER AND/OR OBSTRUCTIONS TO VISIBILITY.

NOT ALL STATIONS ARE QUALITY CONTROLLED. USE DATA WITH CAUTION...
ESPECIALLY DEWPOINT OBSERVATIONS.

SCZ027-030-031-034>040-042>050-221700-
...SOUTHEAST SOUTH CAROLINA...

CITY           SKY/WX    TMP DP  RH WIND       PRES   REMARKS
N CHARLESTON   MOSUNNY   75  57  53 SE21      29.94F
WATERFRONT PRK   N/A     67  61  80 E12       29.92F
MOUNT PLEASANT FAIR      72  59  64 SE9G18    29.95S
JOHNS ISLAND     N/A     72  61  68 E12       29.94S
PINOPOLIS        N/A     72  57  60 SE8G16    29.87R
MONCKS CORNER  PTSUNNY   72  52  49 SE14G21   29.95S
SUMMERVILLE    PTSUNNY   72  55  56 E9G17     29.95S
BEAUFORT MCAS  LGT RAIN  68  61  78 E17G24    29.92S
BEAUFORT ARPT  CLOUDY    68  61  77 E9G20     29.92R
HILTON HEAD IS PTSUNNY   66  63  88 E9        29.92R
WALTERBORO     CLOUDY    68  59  73 E7        29.95R
ALLENDALE      CLOUDY    70  59  68 E6        29.92R

...SOUTHERN MIDLANDS AND PEE DEE...

CITY           SKY/WX    TMP DP  RH WIND       PRES   REMARKS
GEORGETOWN     FAIR      70  55  60 SE13      29.98S
KINGSTREE      FAIR      70  52  52 SE10      29.96S
ORANGEBURG     CLOUDY    67  57  70 SE7       29.94S
BARNWELL       FAIR      72  61  68 E14       29.93S
AIKEN          PTSUNNY   64  57  77 E6        29.98S
MANNING        FAIR     N/A N/A N/A MISG      29.95S
COLUMBIA       CLOUDY    67  56  67 E6        29.96R
SUMTER         SUNNY     71  55  57 SE10      29.94S
FLORENCE       SUNNY     72  55  55 E9        29.97F
MYRTLE BEACH   MOSUNNY   70  55  60 SE16      29.98F
N MYRTLE BEACH SUNNY     68  55  63 SE12G17   29.98F

$$

GAZ063-065-086>088-099>101-113>116-118-119-134>141-150-221700-
...SOUTHEAST GEORGIA...

CITY           SKY/WX    TMP DP  RH WIND       PRES   REMARKS
SAVANNAH ARPT  CLOUDY    69  61  75 E14G21    29.90S
HUNTER AAF     CLOUDY    67  67  99 E9        29.88R
FORT STEWART   LGT RAIN  65  63  93 SE3       29.88R FOG
STATESBORO     CLOUDY    69  63  81 E8        29.90S
SYLVANIA       CLOUDY   N/A N/A N/A E9        29.92R
CLAXTON        CLOUDY   N/A N/A N/A NE7       29.90R

...CSRA...CENTRAL AND FAR SOUTHEAST GEORGIA...

CITY           SKY/WX    TMP DP  RH WIND       PRES   REMARKS
THOMSON        CLOUDY    69  63  79 E5        29.98R
AUGUSTA-BUSH   PTSUNNY   70  59  68 SE7       29.92S
AUGUSTA-DANIEL PTSUNNY   68  56  65 E6        29.94R
SWAINSBORO     FAIR      68  61  77 SE13      29.91R
VIDALIA        CLOUDY    70  64  83 E7        29.88R
EASTMAN        FAIR      69  54  58 E6        29.90S
HAZLEHURST     PTSUNNY   68  66  92 E8        29.84F
ALMA           PTSUNNY   68  62  81 E7G17     29.84F
WAYCROSS       PTSUNNY   71  69  92 E9        29.83F
JESUP          DRIZZLE   64  61  88 SE7       29.88S
BAXLEY         PTSUNNY   70  68  94 E9        29.85F
BRUNSWICK      RAIN      64  64 100 E8        29.88S
SAINT SIMONS   HVY RAIN  64  63  96 E9        29.87S FOG

$$

SCZ027-028-034-036>038-045-046-048>050-GAZ119-141-221700-
...LAKE AND SUPPLEMENTAL COASTAL OBSERVATIONS...

STATION/POSITION TIME  TEMP    WIND        PRES    WAVE   SWELL
                       AIR SEA DIR/SP/G            HT/PER HT/PER/DIR
                 (UTC) (F)     (DEG/KT/KT) (MB)    (FT/S) (FT/S/D)
WINYAH BAY       1445   66     110/  8     1015.0
LAKE MURRAY      1520   65     100/  1/  5 1014.2
ACE BASIN NERRS  NOT AVBL
FORT PULASKI     1548   63 61   90/ 10/ 12 1012.7S
SAPELO ISLAND    1500   64     170/  3     1012.0

$$

ANZ835-935-AMZ111-154-330-350-352-354-370-450-454-472-221700-
...C-MAN AND BUOY OBSERVATIONS...

STATION/POSITION TIME  TEMP    WIND        PRES    WAVE   SWELL
                       AIR SEA DIR/SP/G            HT/PER HT/PER/DIR
                 (UTC) (F)     (DEG/KT/KT) (MB)    (FT/S) (FT/S/D)
BUOY 41004       1550   70 69  100/ 19/ 23 1013.3F   4/ 5   2/110/13
BUOY 41008       1450   64 62  140/ 16/ 17 1011.6    4/ 7
FOLLY BEACH CMAN 1500   64      70/  8/ 10 1014.5S
CAPERS NEARSHORE 1508   63 59  100/ 10/ 14 1014.0F
FRIPP NEARSHORE  1508   63 61   90/ 12/ 16 1012.7F


STATION/POSITION TIME  TEMP    WIND        PRES    WAVE   SWELL
                       AIR SEA DIR/SP/G            HT/PER HT/PER/DIR
                 (UTC) (F)     (DEG/KT/KT) (MB)    (FT/S) (FT/S/D)
5E ST. MARYS GA  1530      63                N/A     4/ 7
FRYING PAN BUOY  1550   69 67  120/ 14/ 17 1015.5F   4/ 8   2/ 80/ 8
BUOY 41025       1550   67 74  140/  8/ 12 1017.4F   3/10   3/ 70/10
CAPE LOOKOUT NC  1500   63     120/  5/  6 1016.6F
BUOY 41002       1550   65 70  110/ 12/ 14 1017.2F   5/ 8   5/ 20/ 8
BUOY 41010       NOT AVBL
ST AUGUSTINE FL  1600   69 68  140/  9/  9 1010.4F


$$




USA.gov is the U.S. government's official web portal to all federal, state and local government web resources and services.